Location: downtown San Diego
(32.7310°N, 117.1990°W)
Time: 03:37:57
(UTC-07:00)

Cosmos 1953 Rocket - Pass Details

Date: 14 June 2018
Orbit: 605 x 635 km, 82.5° (Epoch: 18 June)

Event Time Altitude Azimuth Distance (km) Brightness Sun altitude
Exits shadow 21:59:42 40° 82° (E) 895 4.1 -20.9°
Drops below altitude 10° 22:03:30 10° 22° (NNE) 1,964 6.4 -21.4°
Sets 22:05:49 0° 16° (NNE) 2,876 7.5 -21.7°
